Location: Beaufort Park
(39.1418°N, 76.9433°W)
Time: 23:47:37
(UTC+00:00)

CZ-4 R/B - Pass Details

Date: 29 October 2020
Orbit: 532 x 598 km, 97.7° (Epoch: 03 December)

Event Time Altitude Azimuth Distance (km) Brightness Sun altitude
Rises 23:45:01 0° 168° (SSE) 2,702 4.8 -19.0°
Reaches altitude 10° 23:47:09 10° 168° (SSE) 1,805 3.8 -19.4°
Maximum altitude 23:51:03 85° 259° (W) 546 1.2 -20.2°
Drops below altitude 10° 23:54:55 10° 347° (NNW) 1,796 4.1 -20.9°
Sets 23:57:02 0° 348° (NNW) 2,688 5.0 -21.3°
